{"data":{"norad_id":62571,"intl_designator":"2025-006T","name":"STARLINK-32773","alt_names":[],"object_type":"PAYLOAD","status":"ACTIVE","operator":null,"country":"US","launch_date":"2025-01-10","launch_site_code":"AFETR","launch_vehicle":null,"mission":null,"orbit_class":"UNKNOWN","rcs_meters":null,"size_class":null,"mass_kg":null,"dimensions":null,"purposes":["comms"],"wikipedia_slug":null,"has_3d_model":false,"image_url":null,"decayed_at":null,"tle_current":{"epoch":"2026-05-24T22:12:20.550240Z","epoch_age_seconds":88403,"freshness":"FRESH","line1":"1 62571U 25006T   26144.92523785  .00015052  00000+0  55521-3 0  9995","line2":"2 62571  42.9997 221.8878 0001152 282.3166  77.7557 15.27589505 76521","mean_motion":15.27589505,"eccentricity":0.0001152,"inclination_deg":42.9997,"raan_deg":221.8878,"arg_perigee_deg":282.3166,"mean_anomaly_deg":77.7557,"bstar":0.00055521,"rev_number":7652,"period_min":94.266162165077,"perigee_km":482.2302294383,"apogee_km":483.81104015735,"semimajor_km":6861.1576347978,"source":"CELESTRAK","updated_at":"2026-05-25T13:38:19.731579Z"}}}